LEMUR-2-ZACHARY (42845 NORAD) Tracking and Keplerian Element Data

This shows tracking and keplerian element data for the satellite.

Feedback or suggestion? Click here.




ElementValue
Catalog42845
NameLEMUR-2-ZACHARY
Epoch Orbit41283
Epoch Day34.49266621
Epoch Year2025
RAAN223.3953
Inclination97.3708
Eccentricity0.0006917
Argument of Perigee4.6548
Mean Anonmoly355.475
Mean Motion15.18684392
Decay Rate0.00022416
L11 42845U 17042W 25034.49266621 .00022416 00000+0 10812-2 0 9995
L22 42845 97.3708 223.3953 0006917 4.6548 355.4750 15.18684392412830



Live tracking and technical data element details for LEMUR-2-ZACHARY (NORAD 42845). LEMUR-2-ZACHARY can be tracked NOW for your location showing map with azimuth and elevation plus other details from your city location.







IsCatalogInMostPopularTable: catalog: 42845, numindb: 649
Update: records affected: 1



GetName: 42845 LEMUR-2-ZACHARY

Hit Count: updated at: Sat, 17 May 2025 06:32:32 GMT